Year,Month,Day,Hour,Minute,Value (Times are PST for temperature in C)
2015,03,12,00,00,9.30
2015,03,12,00,01,9.40
2015,03,12,00,02,9.50
2015,03,12,00,03,9.60
2015,03,12,00,04,9.70
2015,03,12,00,05,9.70
2015,03,12,00,06,9.70
2015,03,12,00,07,9.70
2015,03,12,00,08,9.70
2015,03,12,00,09,9.70
2015,03,12,00,10,9.70
2015,03,12,00,11,9.70
2015,03,12,00,12,9.70
2015,03,12,00,13,9.70
2015,03,12,00,14,9.70
2015,03,12,00,15,9.80
2015,03,12,00,16,9.70
2015,03,12,00,17,9.70
2015,03,12,00,18,9.70
2015,03,12,00,19,9.70
2015,03,12,00,20,9.70
2015,03,12,00,21,9.80
2015,03,12,00,22,9.80
2015,03,12,00,23,9.90
2015,03,12,00,24,10.00
2015,03,12,00,25,10.00
2015,03,12,00,26,10.00
2015,03,12,00,27,10.00
2015,03,12,00,28,10.00
2015,03,12,00,29,10.00
2015,03,12,00,30,9.90
2015,03,12,00,31,9.80
2015,03,12,00,32,9.80
2015,03,12,00,33,9.80
2015,03,12,00,34,9.80
2015,03,12,00,35,9.70
2015,03,12,00,36,9.70
2015,03,12,00,37,9.80
2015,03,12,00,38,9.90
2015,03,12,00,39,9.90
2015,03,12,00,40,10.00
2015,03,12,00,41,10.00
2015,03,12,00,42,10.00
2015,03,12,00,43,10.10
2015,03,12,00,44,10.10
2015,03,12,00,45,10.00
2015,03,12,00,46,10.10
2015,03,12,00,47,10.00
2015,03,12,00,48,10.00
2015,03,12,00,49,10.00
2015,03,12,00,50,10.00
2015,03,12,00,51,10.10
2015,03,12,00,52,10.10
2015,03,12,00,53,10.00
2015,03,12,00,54,10.00
2015,03,12,00,55,9.90
2015,03,12,00,56,9.90
2015,03,12,00,57,9.80
2015,03,12,00,58,9.80
2015,03,12,00,59,9.70
2015,03,12,01,00,9.70
2015,03,12,01,01,9.60
2015,03,12,01,02,9.60
2015,03,12,01,03,9.60
2015,03,12,01,04,9.50
2015,03,12,01,05,9.50
2015,03,12,01,06,9.40
2015,03,12,01,07,9.40
2015,03,12,01,08,9.40
2015,03,12,01,09,9.30
2015,03,12,01,10,9.30
2015,03,12,01,11,9.20
2015,03,12,01,12,9.20
2015,03,12,01,13,9.20
2015,03,12,01,14,9.20
2015,03,12,01,15,9.20
2015,03,12,01,16,9.20
2015,03,12,01,17,9.10
2015,03,12,01,18,9.10
2015,03,12,01,19,9.10
2015,03,12,01,20,9.10
2015,03,12,01,21,9.10
2015,03,12,01,22,9.00
2015,03,12,01,23,8.90
2015,03,12,01,24,8.90
2015,03,12,01,25,8.90
2015,03,12,01,26,9.00
2015,03,12,01,27,8.90
2015,03,12,01,28,8.90
2015,03,12,01,29,8.90
2015,03,12,01,30,8.90
2015,03,12,01,31,9.00
2015,03,12,01,32,9.00
2015,03,12,01,33,9.00
2015,03,12,01,34,8.90
2015,03,12,01,35,8.90
2015,03,12,01,36,8.90
2015,03,12,01,37,8.90
2015,03,12,01,38,9.00
2015,03,12,01,39,9.10
2015,03,12,01,40,9.10
2015,03,12,01,41,9.10
2015,03,12,01,42,9.20
2015,03,12,01,43,9.10
2015,03,12,01,44,9.00
2015,03,12,01,45,9.10
2015,03,12,01,46,9.10
2015,03,12,01,47,9.20
2015,03,12,01,48,9.20
2015,03,12,01,49,9.20
2015,03,12,01,50,9.20
2015,03,12,01,51,9.20
2015,03,12,01,52,9.20
2015,03,12,01,53,9.10
2015,03,12,01,54,9.10
2015,03,12,01,55,9.10
2015,03,12,01,56,9.20
2015,03,12,01,57,9.20
2015,03,12,01,58,9.20
2015,03,12,01,59,9.20
2015,03,12,02,00,9.20
2015,03,12,02,01,9.10
2015,03,12,02,02,9.10
2015,03,12,02,03,9.10
2015,03,12,02,04,9.10
2015,03,12,02,05,9.20
2015,03,12,02,06,9.20
2015,03,12,02,07,9.20
2015,03,12,02,08,9.20
2015,03,12,02,09,9.20
2015,03,12,02,10,9.10
2015,03,12,02,11,9.10
2015,03,12,02,12,9.00
2015,03,12,02,13,9.00
2015,03,12,02,14,9.00
2015,03,12,02,15,9.00
2015,03,12,02,16,9.10
2015,03,12,02,17,9.10
2015,03,12,02,18,9.10
2015,03,12,02,19,9.10
2015,03,12,02,20,9.00
2015,03,12,02,21,9.00
2015,03,12,02,22,9.00
2015,03,12,02,23,9.00
2015,03,12,02,24,8.90
2015,03,12,02,25,8.90
2015,03,12,02,26,8.90
2015,03,12,02,27,8.80
2015,03,12,02,28,8.80
2015,03,12,02,29,8.80
2015,03,12,02,30,8.80
2015,03,12,02,31,8.80
2015,03,12,02,32,8.70
2015,03,12,02,33,8.70
2015,03,12,02,34,8.70
2015,03,12,02,35,8.60
2015,03,12,02,36,8.60
2015,03,12,02,37,8.60
2015,03,12,02,38,8.60
2015,03,12,02,39,8.60
2015,03,12,02,40,8.50
2015,03,12,02,41,8.50
2015,03,12,02,42,8.50
2015,03,12,02,43,8.40
2015,03,12,02,44,8.50
2015,03,12,02,45,8.50
2015,03,12,02,46,8.60
2015,03,12,02,47,8.70
2015,03,12,02,48,8.70
2015,03,12,02,49,8.70
2015,03,12,02,50,8.80
2015,03,12,02,51,8.80
2015,03,12,02,52,8.80
2015,03,12,02,53,8.90
2015,03,12,02,54,9.10
2015,03,12,02,55,9.20
2015,03,12,02,56,9.20
2015,03,12,02,57,9.20
2015,03,12,02,58,9.20
2015,03,12,02,59,9.30
2015,03,12,03,00,9.40
2015,03,12,03,01,9.40
2015,03,12,03,02,9.40
2015,03,12,03,03,9.40
2015,03,12,03,04,9.40
2015,03,12,03,05,9.30
2015,03,12,03,06,9.30
2015,03,12,03,07,9.20
2015,03,12,03,08,9.20
2015,03,12,03,09,9.20
2015,03,12,03,10,9.20
2015,03,12,03,11,9.20
2015,03,12,03,12,9.20
2015,03,12,03,13,9.20
2015,03,12,03,14,9.10
2015,03,12,03,15,9.10
2015,03,12,03,16,9.10
2015,03,12,03,17,9.00
2015,03,12,03,18,9.00
2015,03,12,03,19,9.00
2015,03,12,03,20,9.00
2015,03,12,03,21,9.00
2015,03,12,03,22,9.00
2015,03,12,03,23,9.00
2015,03,12,03,24,9.00
2015,03,12,03,25,8.90
2015,03,12,03,26,8.90
2015,03,12,03,27,8.90
2015,03,12,03,28,8.90
2015,03,12,03,29,8.90
2015,03,12,03,30,8.90
2015,03,12,03,31,8.90
2015,03,12,03,32,8.90
2015,03,12,03,33,8.90
2015,03,12,03,34,8.90
2015,03,12,03,35,8.90
2015,03,12,03,36,8.90
2015,03,12,03,37,8.90
2015,03,12,03,38,8.90
2015,03,12,03,39,8.90
2015,03,12,03,40,8.90
2015,03,12,03,41,8.90
2015,03,12,03,42,9.00
2015,03,12,03,43,9.00
2015,03,12,03,44,9.10
2015,03,12,03,45,9.10
2015,03,12,03,46,9.10
2015,03,12,03,47,9.10
2015,03,12,03,48,9.10
2015,03,12,03,49,9.10
2015,03,12,03,50,9.10
2015,03,12,03,51,9.20
2015,03,12,03,52,9.20
2015,03,12,03,53,9.20
2015,03,12,03,54,9.20
2015,03,12,03,55,9.20
2015,03,12,03,56,9.20
2015,03,12,03,57,9.20
2015,03,12,03,58,9.20
2015,03,12,03,59,9.20
2015,03,12,04,00,9.20
2015,03,12,04,01,9.20
2015,03,12,04,02,9.10
2015,03,12,04,03,9.10
2015,03,12,04,04,9.10
2015,03,12,04,05,9.20
2015,03,12,04,06,9.20
2015,03,12,04,07,9.20
2015,03,12,04,08,9.20
2015,03,12,04,09,9.20
2015,03,12,04,10,9.20
2015,03,12,04,11,9.20
2015,03,12,04,12,9.20
2015,03,12,04,13,9.10
2015,03,12,04,14,9.10
2015,03,12,04,15,9.10
2015,03,12,04,16,9.10
2015,03,12,04,17,9.20
2015,03,12,04,18,9.20
2015,03,12,04,19,9.10
2015,03,12,04,20,9.10
2015,03,12,04,21,9.10
2015,03,12,04,22,9.20
2015,03,12,04,23,9.20
2015,03,12,04,24,9.30
2015,03,12,04,25,9.50
2015,03,12,04,26,9.60
2015,03,12,04,27,9.80
2015,03,12,04,28,9.90
2015,03,12,04,29,9.90
2015,03,12,04,30,9.90
2015,03,12,04,31,9.80
2015,03,12,04,32,9.70
2015,03,12,04,33,9.70
2015,03,12,04,34,9.60
2015,03,12,04,35,9.60
2015,03,12,04,36,9.60
2015,03,12,04,37,9.60
2015,03,12,04,38,9.60
2015,03,12,04,39,9.50
2015,03,12,04,40,9.50
2015,03,12,04,41,9.50
2015,03,12,04,42,9.50
2015,03,12,04,43,9.40
2015,03,12,04,44,9.40
2015,03,12,04,45,9.40
2015,03,12,04,46,9.30
2015,03,12,04,47,9.30
2015,03,12,04,48,9.30
2015,03,12,04,49,9.30
2015,03,12,04,50,9.40
2015,03,12,04,51,9.50
2015,03,12,04,52,9.60
2015,03,12,04,53,9.60
2015,03,12,04,54,9.60
2015,03,12,04,55,9.60
2015,03,12,04,56,9.50
2015,03,12,04,57,9.50
2015,03,12,04,58,9.40
2015,03,12,04,59,9.40
2015,03,12,05,00,9.40
2015,03,12,05,01,9.40
2015,03,12,05,02,9.40
2015,03,12,05,03,9.40
2015,03,12,05,04,9.50
2015,03,12,05,05,9.50
2015,03,12,05,06,9.50
2015,03,12,05,07,9.50
2015,03,12,05,08,9.60
2015,03,12,05,09,9.60
2015,03,12,05,10,9.60
2015,03,12,05,11,9.70
2015,03,12,05,12,9.70
2015,03,12,05,13,9.70
2015,03,12,05,14,9.80
2015,03,12,05,15,9.80
2015,03,12,05,16,9.80
2015,03,12,05,17,9.80
2015,03,12,05,18,9.80
2015,03,12,05,19,9.70
2015,03,12,05,20,9.70
2015,03,12,05,21,9.70
2015,03,12,05,22,9.70
2015,03,12,05,23,9.60
2015,03,12,05,24,9.60
2015,03,12,05,25,9.50
2015,03,12,05,26,9.50
2015,03,12,05,27,9.50
2015,03,12,05,28,9.40
2015,03,12,05,29,9.30
2015,03,12,05,30,9.30
2015,03,12,05,31,9.30
2015,03,12,05,32,9.30
2015,03,12,05,33,9.30
2015,03,12,05,34,9.30
2015,03,12,05,35,9.30
2015,03,12,05,36,9.30
2015,03,12,05,37,9.30
2015,03,12,05,38,9.30
2015,03,12,05,39,9.30
2015,03,12,05,40,9.30
2015,03,12,05,41,9.40
2015,03,12,05,42,9.40
2015,03,12,05,43,9.50
2015,03,12,05,44,9.50
2015,03,12,05,45,9.60
2015,03,12,05,46,9.70
2015,03,12,05,47,9.70
2015,03,12,05,48,9.80
2015,03,12,05,49,9.80
2015,03,12,05,50,9.90
2015,03,12,05,51,9.90
2015,03,12,05,52,9.90
2015,03,12,05,53,9.90
2015,03,12,05,54,9.80
2015,03,12,05,55,9.80
2015,03,12,05,56,9.90
2015,03,12,05,57,9.90
2015,03,12,05,58,9.90
2015,03,12,05,59,10.00
2015,03,12,06,00,10.00
2015,03,12,06,01,10.10
2015,03,12,06,02,10.10
2015,03,12,06,03,10.10
2015,03,12,06,04,10.10
2015,03,12,06,05,10.10
2015,03,12,06,06,10.10
2015,03,12,06,07,10.10
2015,03,12,06,08,10.10
2015,03,12,06,09,10.10
2015,03,12,06,10,10.10
2015,03,12,06,11,10.10
2015,03,12,06,12,10.10
2015,03,12,06,13,10.10
2015,03,12,06,14,10.10
2015,03,12,06,15,10.10
2015,03,12,06,16,10.10
2015,03,12,06,17,10.00
2015,03,12,06,18,10.00
2015,03,12,06,19,9.90
2015,03,12,06,20,9.90
2015,03,12,06,21,9.90
2015,03,12,06,22,9.90
2015,03,12,06,23,9.90
2015,03,12,06,24,9.90
2015,03,12,06,25,9.90
2015,03,12,06,26,9.90
2015,03,12,06,27,9.90
2015,03,12,06,28,9.90
2015,03,12,06,29,9.90
2015,03,12,06,30,10.00
2015,03,12,06,31,10.00
2015,03,12,06,32,10.00
2015,03,12,06,33,10.10
2015,03,12,06,34,10.10
2015,03,12,06,35,10.10
2015,03,12,06,36,10.10
2015,03,12,06,37,10.10
2015,03,12,06,38,10.20
2015,03,12,06,39,10.20
2015,03,12,06,40,10.20
2015,03,12,06,41,10.20
2015,03,12,06,42,10.20
2015,03,12,06,43,10.20
2015,03,12,06,44,10.20
2015,03,12,06,45,10.30
2015,03,12,06,46,10.30
2015,03,12,06,47,10.40
2015,03,12,06,48,10.40
2015,03,12,06,49,10.40
2015,03,12,06,50,10.40
2015,03,12,06,51,10.40
2015,03,12,06,52,10.40
2015,03,12,06,53,10.40
2015,03,12,06,54,10.40
2015,03,12,06,55,10.40
2015,03,12,06,56,10.30
2015,03,12,06,57,10.30
2015,03,12,06,58,10.30
2015,03,12,06,59,10.30
2015,03,12,07,00,10.30
2015,03,12,07,01,10.40
2015,03,12,07,02,10.40
2015,03,12,07,03,10.40
2015,03,12,07,04,10.50
2015,03,12,07,05,10.50
2015,03,12,07,06,10.60
2015,03,12,07,07,10.60
2015,03,12,07,08,10.60
2015,03,12,07,09,10.60
2015,03,12,07,10,10.60
2015,03,12,07,11,10.60
2015,03,12,07,12,10.60
2015,03,12,07,13,10.60
2015,03,12,07,14,10.60
2015,03,12,07,15,10.60
2015,03,12,07,16,10.60
2015,03,12,07,17,10.60
2015,03,12,07,18,10.60
2015,03,12,07,19,10.60
2015,03,12,07,20,10.60
2015,03,12,07,21,10.70
2015,03,12,07,22,10.70
2015,03,12,07,23,10.70
2015,03,12,07,24,10.60
2015,03,12,07,25,10.70
2015,03,12,07,26,10.70
2015,03,12,07,27,10.70
2015,03,12,07,28,10.70
2015,03,12,07,29,10.70
2015,03,12,07,30,10.70
2015,03,12,07,31,10.70
2015,03,12,07,32,10.70
2015,03,12,07,33,10.70
2015,03,12,07,34,10.70
2015,03,12,07,35,10.80
2015,03,12,07,36,10.80
2015,03,12,07,37,10.80
2015,03,12,07,38,10.80
2015,03,12,07,39,10.80
2015,03,12,07,40,10.80
2015,03,12,07,41,10.80
2015,03,12,07,42,10.80
2015,03,12,07,43,10.80
2015,03,12,07,44,10.80
2015,03,12,07,45,10.80
2015,03,12,07,46,10.80
2015,03,12,07,47,10.80
2015,03,12,07,48,10.80
2015,03,12,07,49,10.80
2015,03,12,07,50,10.80
2015,03,12,07,51,10.80
2015,03,12,07,52,10.80
2015,03,12,07,53,10.80
2015,03,12,07,54,10.80
2015,03,12,07,55,10.80
2015,03,12,07,56,10.80
2015,03,12,07,57,10.90
2015,03,12,07,58,10.90
2015,03,12,07,59,10.90
2015,03,12,08,00,10.90
2015,03,12,08,01,10.90
2015,03,12,08,02,10.90
2015,03,12,08,03,10.90
2015,03,12,08,04,10.90
2015,03,12,08,05,10.90
2015,03,12,08,06,10.90
2015,03,12,08,07,11.00
2015,03,12,08,08,11.00
2015,03,12,08,09,11.00
2015,03,12,08,10,11.00
2015,03,12,08,11,10.90
2015,03,12,08,12,11.00
2015,03,12,08,13,11.00
2015,03,12,08,14,11.00
2015,03,12,08,15,11.00
2015,03,12,08,16,11.10
2015,03,12,08,17,11.10
2015,03,12,08,18,11.10
2015,03,12,08,19,11.10
2015,03,12,08,20,11.10
2015,03,12,08,21,11.10
2015,03,12,08,22,11.10
2015,03,12,08,23,11.20
2015,03,12,08,24,11.20
2015,03,12,08,25,11.20
2015,03,12,08,26,11.20
2015,03,12,08,27,11.30
2015,03,12,08,28,11.30
2015,03,12,08,29,11.30
2015,03,12,08,30,11.30
2015,03,12,08,31,11.30
2015,03,12,08,32,11.30
2015,03,12,08,33,11.40
2015,03,12,08,34,11.40
2015,03,12,08,35,11.40
2015,03,12,08,36,11.50
2015,03,12,08,37,11.50
2015,03,12,08,38,11.50
2015,03,12,08,39,11.60
2015,03,12,08,40,11.60
2015,03,12,08,41,11.60
2015,03,12,08,42,11.60
2015,03,12,08,43,11.60
2015,03,12,08,44,11.60
2015,03,12,08,45,11.60
2015,03,12,08,46,11.60
2015,03,12,08,47,11.60
2015,03,12,08,48,11.60
2015,03,12,08,49,11.60
2015,03,12,08,50,11.60
2015,03,12,08,51,11.70
2015,03,12,08,52,11.70
2015,03,12,08,53,11.70
2015,03,12,08,54,11.70
2015,03,12,08,55,11.70
2015,03,12,08,56,11.60
2015,03,12,08,57,11.60
2015,03,12,08,58,11.60
2015,03,12,08,59,11.60
2015,03,12,09,00,11.60
2015,03,12,09,01,11.60
2015,03,12,09,02,11.60
2015,03,12,09,03,11.60
2015,03,12,09,04,11.60
2015,03,12,09,05,11.60
2015,03,12,09,06,11.60
2015,03,12,09,07,11.60
2015,03,12,09,08,11.60
2015,03,12,09,09,11.60
2015,03,12,09,10,11.60
2015,03,12,09,11,11.60
2015,03,12,09,12,11.60
2015,03,12,09,13,11.50
2015,03,12,09,14,11.50
2015,03,12,09,15,11.40
2015,03,12,09,16,11.40
2015,03,12,09,17,11.40
2015,03,12,09,18,11.40
2015,03,12,09,19,11.40
2015,03,12,09,20,11.40
2015,03,12,09,21,11.30
2015,03,12,09,22,11.30
2015,03,12,09,23,11.30
2015,03,12,09,24,11.30
2015,03,12,09,25,11.30
2015,03,12,09,26,11.20
2015,03,12,09,27,11.20
2015,03,12,09,28,11.20
2015,03,12,09,29,11.10
2015,03,12,09,30,11.10
2015,03,12,09,31,11.10
2015,03,12,09,32,11.10
2015,03,12,09,33,11.00
2015,03,12,09,34,11.00
2015,03,12,09,35,11.00
2015,03,12,09,36,10.90
2015,03,12,09,37,10.90
2015,03,12,09,38,10.90
2015,03,12,09,39,10.90
2015,03,12,09,40,10.90
2015,03,12,09,41,10.90
2015,03,12,09,42,10.90
2015,03,12,09,43,10.90
2015,03,12,09,44,10.90
2015,03,12,09,45,10.90
2015,03,12,09,46,10.90
2015,03,12,09,47,11.00
2015,03,12,09,48,11.00
2015,03,12,09,49,11.00
2015,03,12,09,50,11.10
2015,03,12,09,51,11.10
2015,03,12,09,52,11.10
2015,03,12,09,53,11.20
2015,03,12,09,54,11.20
2015,03,12,09,55,11.20
2015,03,12,09,56,11.20
2015,03,12,09,57,11.30
2015,03,12,09,58,11.30
2015,03,12,09,59,11.30
2015,03,12,10,00,11.30
2015,03,12,10,01,11.30
2015,03,12,10,02,11.30
2015,03,12,10,03,11.30
2015,03,12,10,04,11.30
2015,03,12,10,05,11.40
2015,03,12,10,06,11.40
2015,03,12,10,07,11.40
2015,03,12,10,08,11.30
2015,03,12,10,09,11.30
2015,03,12,10,10,11.40
2015,03,12,10,11,11.40
2015,03,12,10,12,11.40
2015,03,12,10,13,11.40
2015,03,12,10,14,11.40
2015,03,12,10,15,11.40
2015,03,12,10,16,11.40
2015,03,12,10,17,11.40
2015,03,12,10,18,11.50
2015,03,12,10,19,11.50
2015,03,12,10,20,11.50
2015,03,12,10,21,11.60
2015,03,12,10,22,11.60
2015,03,12,10,23,11.60
2015,03,12,10,24,11.60
2015,03,12,10,25,11.60
2015,03,12,10,26,11.60
2015,03,12,10,27,11.60
2015,03,12,10,28,11.60
2015,03,12,10,29,11.60
2015,03,12,10,30,11.60
2015,03,12,10,31,11.60
2015,03,12,10,32,11.60
2015,03,12,10,33,11.60
2015,03,12,10,34,11.60
2015,03,12,10,35,11.60
2015,03,12,10,36,11.70
2015,03,12,10,37,11.70
2015,03,12,10,38,11.70
2015,03,12,10,39,11.70
2015,03,12,10,40,11.70
2015,03,12,10,41,11.70
2015,03,12,10,42,11.80
2015,03,12,10,43,11.80
2015,03,12,10,44,11.80
2015,03,12,10,45,11.80
2015,03,12,10,46,11.90
2015,03,12,10,47,11.90
2015,03,12,10,48,11.90
2015,03,12,10,49,11.90
2015,03,12,10,50,11.90
2015,03,12,10,51,11.90
2015,03,12,10,52,11.90
2015,03,12,10,53,11.90
2015,03,12,10,54,11.90
2015,03,12,10,55,11.90
2015,03,12,10,56,11.90
2015,03,12,10,57,11.90
2015,03,12,10,58,11.90
2015,03,12,10,59,11.90
2015,03,12,11,00,11.90
2015,03,12,11,01,11.90
2015,03,12,11,02,11.90
2015,03,12,11,03,11.90
2015,03,12,11,04,11.90
2015,03,12,11,05,11.90
2015,03,12,11,06,11.90
2015,03,12,11,07,11.90
2015,03,12,11,08,11.90
2015,03,12,11,09,11.90
2015,03,12,11,10,11.90
2015,03,12,11,11,11.90
2015,03,12,11,12,11.90
2015,03,12,11,13,11.90
2015,03,12,11,14,11.90
2015,03,12,11,15,11.90
2015,03,12,11,16,11.90
2015,03,12,11,17,11.90
2015,03,12,11,18,11.90
2015,03,12,11,19,11.90
2015,03,12,11,20,11.90
2015,03,12,11,21,11.90
2015,03,12,11,22,12.00
2015,03,12,11,23,12.00
2015,03,12,11,24,12.00
2015,03,12,11,25,12.10
2015,03,12,11,26,12.10
2015,03,12,11,27,12.10
2015,03,12,11,28,12.20
2015,03,12,11,29,12.20
2015,03,12,11,30,12.20
2015,03,12,11,31,12.20
2015,03,12,11,32,12.20
2015,03,12,11,33,12.20
2015,03,12,11,34,12.20
2015,03,12,11,35,12.20
2015,03,12,11,36,12.20
2015,03,12,11,37,12.20
2015,03,12,11,38,12.20
2015,03,12,11,39,12.20
2015,03,12,11,40,12.20
2015,03,12,11,41,12.20
2015,03,12,11,42,12.20
2015,03,12,11,43,12.20
2015,03,12,11,44,12.20
2015,03,12,11,45,12.30
2015,03,12,11,46,12.40
2015,03,12,11,47,12.40
2015,03,12,11,48,12.50
2015,03,12,11,49,12.60
2015,03,12,11,50,12.70
2015,03,12,11,51,12.80
2015,03,12,11,52,12.80
2015,03,12,11,53,12.90
2015,03,12,11,54,12.90
2015,03,12,11,55,12.90
2015,03,12,11,56,13.00
2015,03,12,11,57,13.10
2015,03,12,11,58,13.10
2015,03,12,11,59,13.10
2015,03,12,12,00,13.10
2015,03,12,12,01,13.10
2015,03,12,12,02,13.10
2015,03,12,12,03,13.10
2015,03,12,12,04,13.10
2015,03,12,12,05,13.10
2015,03,12,12,06,13.00
2015,03,12,12,07,13.00
2015,03,12,12,08,13.00
2015,03,12,12,09,13.00
2015,03,12,12,10,13.00
2015,03,12,12,11,13.00
2015,03,12,12,12,13.00
2015,03,12,12,13,13.00
2015,03,12,12,14,13.10
2015,03,12,12,15,13.10
2015,03,12,12,16,13.10
2015,03,12,12,17,13.10
2015,03,12,12,18,13.10
2015,03,12,12,19,13.10
2015,03,12,12,20,13.10
2015,03,12,12,21,13.10
2015,03,12,12,22,13.10
2015,03,12,12,23,13.10
2015,03,12,12,24,13.10
2015,03,12,12,25,13.10
2015,03,12,12,26,13.10
2015,03,12,12,27,13.10
2015,03,12,12,28,13.10
2015,03,12,12,29,13.10
2015,03,12,12,30,13.10
2015,03,12,12,31,13.10
2015,03,12,12,32,13.10
2015,03,12,12,33,13.10
2015,03,12,12,34,13.20
2015,03,12,12,35,13.20
2015,03,12,12,36,13.20
2015,03,12,12,37,13.20
2015,03,12,12,38,13.20
2015,03,12,12,39,13.20
2015,03,12,12,40,13.20
2015,03,12,12,41,13.20
2015,03,12,12,42,13.20
2015,03,12,12,43,13.20
2015,03,12,12,44,13.20
2015,03,12,12,45,13.30
2015,03,12,12,46,13.30
2015,03,12,12,47,13.30
2015,03,12,12,48,13.30
2015,03,12,12,49,13.30
2015,03,12,12,50,13.30
2015,03,12,12,51,13.30
2015,03,12,12,52,13.30
2015,03,12,12,53,13.30
2015,03,12,12,54,13.30
2015,03,12,12,55,13.30
2015,03,12,12,56,13.30
2015,03,12,12,57,13.30
2015,03,12,12,58,13.30
2015,03,12,12,59,13.30
2015,03,12,13,00,13.40
2015,03,12,13,01,13.40
2015,03,12,13,02,13.40
2015,03,12,13,03,13.50
2015,03,12,13,04,13.50
2015,03,12,13,05,13.60
2015,03,12,13,06,13.60
2015,03,12,13,07,13.60
2015,03,12,13,08,13.60
2015,03,12,13,09,13.60
2015,03,12,13,10,13.70
2015,03,12,13,11,13.70
2015,03,12,13,12,13.70
2015,03,12,13,13,13.70
2015,03,12,13,14,13.70
2015,03,12,13,15,13.80
2015,03,12,13,16,13.80
2015,03,12,13,17,13.80
2015,03,12,13,18,13.80
2015,03,12,13,19,13.80
2015,03,12,13,20,13.80
2015,03,12,13,21,13.80
2015,03,12,13,22,13.90
2015,03,12,13,23,13.90
2015,03,12,13,24,13.90
2015,03,12,13,25,13.90
2015,03,12,13,26,13.90
2015,03,12,13,27,14.00
2015,03,12,13,28,14.00
2015,03,12,13,29,14.10
2015,03,12,13,30,14.20
2015,03,12,13,31,14.20
2015,03,12,13,32,14.30
2015,03,12,13,33,14.40
2015,03,12,13,34,14.50
2015,03,12,13,35,14.60
2015,03,12,13,36,14.60
2015,03,12,13,37,14.60
2015,03,12,13,38,14.60
2015,03,12,13,39,14.60
2015,03,12,13,40,14.60
2015,03,12,13,41,14.50
2015,03,12,13,42,14.50
2015,03,12,13,43,14.40
2015,03,12,13,44,14.50
2015,03,12,13,45,14.60
2015,03,12,13,46,14.70
2015,03,12,13,47,14.70
2015,03,12,13,48,14.80
2015,03,12,13,49,14.90
2015,03,12,13,50,15.00
2015,03,12,13,51,15.00
2015,03,12,13,52,15.00
2015,03,12,13,53,15.00
2015,03,12,13,54,15.00
2015,03,12,13,55,15.00
2015,03,12,13,56,15.00
2015,03,12,13,57,15.00
2015,03,12,13,58,15.00
2015,03,12,13,59,15.00
2015,03,12,14,00,15.10
2015,03,12,14,01,15.10
2015,03,12,14,02,15.10
2015,03,12,14,03,15.10
2015,03,12,14,04,15.10
2015,03,12,14,05,15.10
2015,03,12,14,06,15.10
2015,03,12,14,07,15.10
2015,03,12,14,08,15.00
2015,03,12,14,09,15.10
2015,03,12,14,10,15.00
2015,03,12,14,11,15.00
2015,03,12,14,12,15.10
2015,03,12,14,13,15.10
2015,03,12,14,14,15.10
2015,03,12,14,15,15.10
2015,03,12,14,16,15.20
2015,03,12,14,17,15.30
2015,03,12,14,18,15.30
2015,03,12,14,19,15.30
2015,03,12,14,20,15.30
2015,03,12,14,21,15.20
2015,03,12,14,22,15.30
2015,03,12,14,23,15.30
2015,03,12,14,24,15.30
2015,03,12,14,25,15.30
2015,03,12,14,26,15.30
2015,03,12,14,27,15.30
2015,03,12,14,28,15.40
2015,03,12,14,29,15.50
2015,03,12,14,30,15.50
2015,03,12,14,31,15.50
2015,03,12,14,32,15.50
2015,03,12,14,33,15.50
2015,03,12,14,34,15.40
2015,03,12,14,35,15.30
2015,03,12,14,36,15.30
2015,03,12,14,37,15.20
2015,03,12,14,38,15.20
2015,03,12,14,39,15.20
2015,03,12,14,40,15.20
2015,03,12,14,41,15.20
2015,03,12,14,42,15.20
2015,03,12,14,43,15.30
2015,03,12,14,44,15.30
2015,03,12,14,45,15.30
2015,03,12,14,46,15.30
2015,03,12,14,47,15.30
2015,03,12,14,48,15.30
2015,03,12,14,49,15.40
2015,03,12,14,50,15.50
2015,03,12,14,51,15.50
2015,03,12,14,52,15.60
2015,03,12,14,53,15.60
2015,03,12,14,54,15.60
2015,03,12,14,55,15.60
2015,03,12,14,56,15.60
2015,03,12,14,57,15.60
2015,03,12,14,58,15.60
2015,03,12,14,59,15.60
2015,03,12,15,00,15.60
2015,03,12,15,01,15.60
2015,03,12,15,02,15.60
2015,03,12,15,03,15.60
2015,03,12,15,04,15.60
2015,03,12,15,05,15.50
2015,03,12,15,06,15.40
2015,03,12,15,07,15.40
2015,03,12,15,08,15.40
2015,03,12,15,09,15.40
2015,03,12,15,10,15.40
2015,03,12,15,11,15.50
2015,03,12,15,12,15.50
2015,03,12,15,13,15.50
2015,03,12,15,14,15.50
2015,03,12,15,15,15.60
2015,03,12,15,16,15.60
2015,03,12,15,17,15.60
2015,03,12,15,18,15.60
2015,03,12,15,19,15.60
2015,03,12,15,20,15.60
2015,03,12,15,21,15.60
2015,03,12,15,22,15.60
2015,03,12,15,23,15.60
2015,03,12,15,24,15.60
2015,03,12,15,25,15.60
2015,03,12,15,26,15.60
2015,03,12,15,27,15.60
2015,03,12,15,28,15.60
2015,03,12,15,29,15.60
2015,03,12,15,30,15.50
2015,03,12,15,31,15.50
2015,03,12,15,32,15.40
2015,03,12,15,33,15.40
2015,03,12,15,34,15.40
2015,03,12,15,35,15.40
2015,03,12,15,36,15.40
2015,03,12,15,37,15.50
2015,03,12,15,38,15.50
2015,03,12,15,39,15.60
2015,03,12,15,40,15.70
2015,03,12,15,41,15.70
2015,03,12,15,42,15.70
2015,03,12,15,43,15.80
2015,03,12,15,44,15.80
2015,03,12,15,45,15.80
2015,03,12,15,46,15.80
2015,03,12,15,47,15.80
2015,03,12,15,48,15.80
2015,03,12,15,49,15.70
2015,03,12,15,50,15.80
2015,03,12,15,51,15.80
2015,03,12,15,52,15.80
2015,03,12,15,53,15.70
2015,03,12,15,54,15.70
2015,03,12,15,55,15.70
2015,03,12,15,56,15.60
2015,03,12,15,57,15.60
2015,03,12,15,58,15.60
2015,03,12,15,59,15.70
2015,03,12,16,00,15.70
2015,03,12,16,01,15.70
2015,03,12,16,02,15.70
2015,03,12,16,03,15.80
2015,03,12,16,04,15.80
2015,03,12,16,05,15.80
2015,03,12,16,06,15.90
2015,03,12,16,07,15.90
2015,03,12,16,08,15.90
2015,03,12,16,09,15.90
2015,03,12,16,10,16.00
2015,03,12,16,11,16.00
2015,03,12,16,12,16.00
2015,03,12,16,13,16.00
2015,03,12,16,14,16.00
2015,03,12,16,15,16.00
2015,03,12,16,16,16.00
2015,03,12,16,17,16.00
2015,03,12,16,18,16.00
2015,03,12,16,19,16.00
2015,03,12,16,20,16.10
2015,03,12,16,21,16.10
2015,03,12,16,22,16.10
2015,03,12,16,23,16.10
2015,03,12,16,24,16.10
2015,03,12,16,25,16.10
2015,03,12,16,26,16.00
2015,03,12,16,27,15.90
2015,03,12,16,28,15.80
2015,03,12,16,29,15.70
2015,03,12,16,30,15.60
2015,03,12,16,31,15.60
2015,03,12,16,32,15.50
2015,03,12,16,33,15.40
2015,03,12,16,34,15.40
2015,03,12,16,35,15.40
2015,03,12,16,36,15.40
2015,03,12,16,37,15.30
2015,03,12,16,38,15.30
2015,03,12,16,39,15.30
2015,03,12,16,40,15.30
2015,03,12,16,41,15.30
2015,03,12,16,42,15.30
2015,03,12,16,43,15.30
2015,03,12,16,44,15.40
2015,03,12,16,45,15.40
2015,03,12,16,46,15.40
2015,03,12,16,47,15.40
2015,03,12,16,48,15.40
2015,03,12,16,49,15.50
2015,03,12,16,50,15.50
2015,03,12,16,51,15.50
2015,03,12,16,52,15.60
2015,03,12,16,53,15.60
2015,03,12,16,54,15.60
2015,03,12,16,55,15.60
2015,03,12,16,56,15.60
2015,03,12,16,57,15.70
2015,03,12,16,58,15.70
2015,03,12,16,59,15.70
2015,03,12,17,00,15.70
2015,03,12,17,01,15.70
2015,03,12,17,02,15.80
2015,03,12,17,03,15.80
2015,03,12,17,04,15.80
2015,03,12,17,05,15.80
2015,03,12,17,06,15.80
2015,03,12,17,07,15.80
2015,03,12,17,08,15.80
2015,03,12,17,09,15.80
2015,03,12,17,10,15.80
2015,03,12,17,11,15.80
2015,03,12,17,12,15.90
2015,03,12,17,13,15.90
2015,03,12,17,14,15.90
2015,03,12,17,15,15.90
2015,03,12,17,16,15.90
2015,03,12,17,17,15.90
2015,03,12,17,18,15.90
2015,03,12,17,19,15.90
2015,03,12,17,20,15.90
2015,03,12,17,21,15.90
2015,03,12,17,22,15.90
2015,03,12,17,23,15.90
2015,03,12,17,24,15.90
2015,03,12,17,25,15.90
2015,03,12,17,26,16.00
2015,03,12,17,27,16.00
2015,03,12,17,28,16.00
2015,03,12,17,29,16.00
2015,03,12,17,30,16.00
2015,03,12,17,31,16.10
2015,03,12,17,32,16.10
2015,03,12,17,33,16.10
2015,03,12,17,34,16.10